Regional Weather Roundup
Issued by NWS Cleveland, OH

Home | Current Version | Previous Version | Text Only | Print | Product List | Glossary Off
Versions: 1 2 3 4 5 6 7 8 9 10 11 12 13 14 15 16 17 18 19 20 21 22 23 24 25 26 27 28 29 30 31 32 33 34 35 36 37 38 39 40 41 42 43 44 45 46 47 48 49 50

000
ASUS41 KCLE 261000
RWRCLE
OHIO REGIONAL WEATHER ROUNDUP
NATIONAL WEATHER SERVICE WILMINGTON, OH
500 AM EST WED NOV 26 2014

NOTE: "FAIR" INDICATES FEW OR NO CLOUDS BELOW 12,000 FEET WITH NO
SIGNIFICANT WEATHER AND/OR OBSTRUCTIONS TO VISIBILITY.

OHZ001>008-015>018-024>027-034-035-043-044-261100-
   NORTHWEST OHIO

CITY           SKY/WX    TMP DP  RH WIND       PRES   REMARKS
DEFIANCE       NOT AVBL
FINDLAY        CLOUDY    29  21  72 E7        30.16R WCI  22
TOLEDO EXPRESS CLOUDY    27  19  72 CALM      30.18S
TOLEDO METCALF CLOUDY    29  20  69 E6        30.20S WCI  23
LIMA           CLOUDY    28  21  75 E9        30.15S WCI  19
$$

OHZ009>014-019>023-028>033-038-089-261100-
   NORTHEAST OHIO

CITY           SKY/WX    TMP DP  RH WIND       PRES   REMARKS
CLE-HOPKINS    CLOUDY    31  25  78 CALM      30.19R
CLE-LAKEFRONT  CLOUDY    34  24  67 E6        30.16S WCI  29
CUY CO. ARPT   NOT AVBL
LORAIN-ELYRIA  CLOUDY    30  25  81 CALM      30.17R
ASHTABULA      CLOUDY    32  26  78 CALM      30.17F
AKRON-CANTON   CLOUDY    30  25  81 NE5       30.13R WCI  25
WOOSTER        NOT AVBL
MANSFIELD      CLOUDY    28  22  78 N6        30.11F WCI  22
YOUNGSTOWN     CLOUDY    30  24  78 NE3       30.15R
$$

OHZ042-051>053-060>062-070>072-077>081-261100-
  SOUTHWEST OHIO

CITY           SKY/WX    TMP DP  RH WIND       PRES   REMARKS
CINC-COVINGTON PTCLDY    27  22  81 N6        30.09F WCI  20
CINC-LUNKEN    CLEAR     26  23  88 NE5       30.13F WCI  20
HAMILTON       CLOUDY    29  26  89 NE7       30.13F WCI  22
DAYTON         NOT AVBL
WRIGHT-PAT AFB CLOUDY    29  24  84 NE7       30.12F WCI  21
DAYTON GENERAL CLOUDY    28  25  88 NE10      30.10F WCI  19
WILMINGTON     PTCLDY    26  23  88 N9        30.09F WCI  17
$$

OHZ036-037-039>041-045>050-054>059-063>069-073>076-082>088-261100-
  CENTRAL AND SOUTHEAST OHIO

CITY           SKY/WX    TMP DP  RH WIND       PRES   REMARKS
COLUMBUS       CLOUDY    28  24  85 N6        30.11F WCI  22
OSU AIRPORT    MOCLDY    27  23  85 N6        30.10F WCI  20
BOLTON FIELD   NOT AVBL
RICKENBACK AFB NOT AVBL
NEWARK         CLOUDY    30  25  81 N5        30.10F WCI  25
MARION         CLOUDY    29  23  78 NE7       30.12F WCI  22
LANCASTER      CLOUDY    30  26  85 N3        30.09F
ZANESVILLE     CLOUDY    29  26  89 N3        30.09F
NEW PHILLY     CLOUDY    32  27  81 VRB3      30.13R
$$



USA.gov is the U.S. government's official web portal to all federal, state and local government web resources and services.